Regional Weather Roundup
Issued by NWS Newport/Morehead, NC

Current Version | Previous Version | Graphics & Text | Print | Product List | Glossary Off
Versions: 1 2 3 4 5 6 7 8 9 10 11 12 13 14 15 16 17 18 19 20 21 22 23 24 25 26 27 28 29 30 31 32 33 34 35 36 37 38 39 40 41 42 43 44 45 46 47 48 49 50

000
ASUS42 KMHX 170125
RWRMHX
WEATHER ROUNDUP FOR EASTERN NORTH CAROLINA
NATIONAL WEATHER SERVICE NEWPORT/MOREHEAD CITY NC
800 PM EST MON JAN 16 2017

NOTE: "FAIR" INDICATES FEW OR NO CLOUDS BELOW 12,000 FEET
WITH NO SIGNIFICANT WEATHER AND/OR OBSTRUCTIONS TO VISIBILITY

NCZ015>017-031-032-045>047-102-103-170200-
NORTH COAST

CITY           SKY/WX    TMP DP  RH WIND       PRES   REMARKS
EDENTON        CLOUDY    45  41  83 CALM      30.38F
ELIZABETH CITY MOCLDY    43  39  86 CALM      30.38S
KITTY HAWK     NOT AVBL
MANTEO         CLEAR     44  40  88 CALM      30.37S

$$

NCZ045>047-081-094-103-104-170200-
CENTRAL COAST

CITY           SKY/WX    TMP DP  RH WIND       PRES   REMARKS
FRISCO         PTCLDY    47  43  86 N8        30.35F

$$

NCZ095-097-098-100-101-170200-
SOUTHERN COAST

CITY           SKY/WX    TMP DP  RH WIND       PRES   REMARKS
BEAUFORT       MOCLDY    47  43  86 CALM      30.37S
CEDAR ISLAND   NOT AVBL
JACKSONVILLE   CLOUDY    53  47  79 NE3       30.35F
PINEY ISLAND   MOCLDY   N/A N/A N/A N3        30.37S
WILMINGTON     CLOUDY    54  47  77 E6        30.35S


$$

NCZ011>013-027>030-043-044-078>080-089-090>093-098-170200-
COASTAL PLAIN

CITY           SKY/WX    TMP DP  RH WIND       PRES   REMARKS
AHOSKIE          N/A     44  38  81 CALM      30.38F
CLINTON        CLOUDY    52  47  82 CALM      30.37F
ELIZABETHTOWN  CLOUDY    52  47  82 CALM      30.35S
GOLDSBORO      CLOUDY    51  45  80 CALM      30.35F
GREENVILLE     CLOUDY    50  45  81 CALM      30.37F
HAVELOCK       MOCLDY    48  43  82 NE3       30.37F
KENANSVILLE    CLOUDY    52  45  76 CALM      30.36F
KINSTON        CLOUDY    52  43  71 CALM      30.38S
NEW BERN       CLOUDY    50  44  80 CALM      30.38F
RICHLANDS      CLOUDY    52  45  77 CALM      30.37S
ROCKY MOUNT    CLOUDY    48  43  82 CALM      30.37F
WASHINGTON     CLOUDY    47  40  76 E3        30.38F HAZE
WHITEVILLE     CLOUDY    53  47  78 NE3       30.34S

$$

AMZ130-135-150-152-154-156-158-170-250-252-270-ANZ085-086-088-633-658-670-170200-
MARINE OBSERVATIONS

STATION/POSITION TIME  TEMP    WIND        PRES    WAVE   SWELL
                       AIR SEA DIR/SP/G            HT/PER HT/PER
                 (UTC) (F)     (DEG/KT/KT) (MB)    (FT/S) (FT/S)
CHESAPEAKE LIGHT NOT AVBL
64 E VA BEACH    0050   53 59   40/  6/  8 1027.8    3/ 8   3/ 8
DUCK             0054   44 44  350/  8/  9 1027.5
2 E DUCK         0100      44                N/A     2/ 8
OREGON INLET     0054   45 48  330/  5/  7 1027.9
13E OREGON INLT  NOT AVBL
HATTERAS CG      0054   47 54  360/ 11/ 12 1027.2
DIAMOND BUOY     0050   55 73   20/ 12/ 14 1027.2    3/ 7   3/ 7
CAPE LOOKOUT     0100   48      10/  7/  9 1027.7
BEAUFORT LAB     0054   48 49   10/  5/  7 1027.2
30 SE NEW RVR IN 0108   54 62   40/ 10/ 14 1027.5
30 SE NEW RVR IN 0043      62                N/A     3/ 8   2/11
27 SE WRIGHTSVLE 0108   60 68   50/ 12/ 16 1026.7
5 SE WRIGHTSVLE  0108   54      50/ 12/ 16 1027.5
225 S CAPE HAT   0050   70 71  140/  8/ 10 1027.1    4/ 8   3/ 8
41 SE CHARLESTON 0050   66 70   20/ 14/ 16 1025.6    4/ 6   3/10

$$



USA.gov is the U.S. government's official web portal to all federal, state and local government web resources and services.